User: anonymous   Login
Location: ??
(31.9467°N, 34.8903°E)
Time: 22:43:12
(UTC+00:00)
Language:

Cosmos 2263 Rocket - Orbit

View from above orbital plane
View from above orbital plane
View from above satellite
View from above satellite

Ground track
Ground track

The orbit data is extracted from the following two-line orbital elements,

1 22803U 93059B   21017.67726537 -.00000238  00000-0 -94781-4 0  9993
2 22803  70.9909   7.8052 0017882 197.6948 162.3555 14.16830614413642
Epoch (UTC): 17 January 2021 16:15:15
Eccentricity: 0.0017882
inclination: 70.9909°
perigee height: 823 km
apogee height: 849 km
right ascension of ascending node: 7.8052°
argument of perigee: 197.6948°
revolutions per day: 14.16830614
mean anomaly at epoch: 162.3555°
orbit number at epoch: 41364

The dashed part of the orbit path shows where the satellite is in the earth's shadow,  

DLR